Wilmington, NC

3:25 AM EDT on October 01, 2016 (GMT -0400)
Wilmington International

Weather History for KILM - February, 2012

Change the Weather History Date:

Sunday, February 19, 2012

  Actual Average Record
Temperature  
Mean Temperature 48 °F 50 °F  
Max Temperature 55 °F 61 °F 78 °F (1976)
Min Temperature 40 °F 38 °F 17 °F (1958)
Degree Days  
Heating Degree Days 17 16  
Month to date heating degree days 299 322  
Since 1 July heating degree days 1461 1797  
Cooling Degree Days 0 0  
Month to date cooling degree days 0 0  
Year to date cooling degree days 0 2  
Moisture  
Dew Point 50 °F    
Average Humidity 95    
Maximum Humidity 100    
Minimum Humidity 89    
Precipitation  
Precipitation 0.87 in 0.13 in 1.52 in (1898)
Month to date precipitation 1.73 2.43  
Year to date precipitation 3.50 6.19  
Snow  
Snow 0.00 in 0.00 in T in (1972)
Month to date snowfall 0.0 0.2  
Since 1 July snowfall T 1.4  
Snow Depth 0.00 in    
Sea Level Pressure  
Sea Level Pressure 29.80 in    
Wind  
Wind Speed 11 mph (NNE)    
Max Wind Speed 26 mph    
Max Gust Speed 36 mph    
Visibility 6 miles    
Events Rain    
T = Trace of Precipitation, MM = Missing Value Source: NWS Daily Summary

Daily Weather History Graph

Daily Weather History Graph

Search for Another Location

Airport or City:

Trip Planner

Search our weather history database for the weather conditions in past years. The results will help you decide how hot, cold, wet, or windy it might be!

Date:

Astronomy

Feb. 19, 2012 Rise Set
Actual Time 6:52 AM EST 5:58 PM EST
Civil Twilight 6:27 AM EST 6:24 PM EST
Nautical Twilight 5:58 AM EST 6:53 PM EST
Astronomical Twilight 5:29 AM EST 7:22 PM EST
Moon 5:08 AM EST (2/19) 4:01 PM EST (2/19)
Length of Visible Light 11h 56m
Length of Day
11h 05m
Waning Crescent, 5% of the Moon is Illuminated
Feb 19
Waning Crescent
Feb 21
New
Feb 29
First Quarter
Mar 8
Full
Mar 14
Last Quarter

Hourly Weather History & Observations

Time (EST) Temp. Windchill Dew Point Humidity Pressure Visibility Wind Dir Wind Speed Gust Speed Precip Events Conditions
12:53 AM 55.0 °F - 54.0 °F 96% 29.94 in 3.0 mi North 3.5 mph - 0.06 in Rain Light Rain
1:53 AM 55.0 °F - 54.0 °F 96% 29.90 in 4.0 mi NE 4.6 mph - 0.03 in Rain Light Rain
2:49 AM 55.4 °F - 53.6 °F 94% 29.90 in 3.0 mi Calm Calm - 0.07 in Rain Rain
2:53 AM 55.0 °F - 54.0 °F 96% 29.91 in 3.0 mi Calm Calm - 0.09 in Rain Rain
2:58 AM 55.4 °F - 53.6 °F 94% 29.90 in 3.0 mi Calm Calm - 0.01 in Rain Rain
3:10 AM 55.4 °F - 53.6 °F 94% 29.90 in 2.5 mi North 3.5 mph - 0.04 in Rain Rain
3:26 AM 55.4 °F - 53.6 °F 94% 29.89 in 2.0 mi North 3.5 mph - 0.10 in Rain Heavy Rain
3:50 AM 55.4 °F - 53.6 °F 94% 29.90 in 2.5 mi NE 3.5 mph - 0.18 in Rain Heavy Rain
3:53 AM 55.0 °F - 54.0 °F 96% 29.91 in 2.5 mi Calm Calm - 0.19 in Rain Heavy Rain
4:03 AM 55.4 °F - 53.6 °F 94% 29.91 in 2.5 mi North 3.5 mph - 0.04 in Rain Rain
4:24 AM 55.4 °F - 53.6 °F 94% 29.90 in 3.0 mi ENE 4.6 mph - 0.12 in Rain Rain
4:45 AM 55.4 °F - 53.6 °F 94% 29.87 in 4.0 mi ENE 9.2 mph - 0.17 in Rain Rain
4:53 AM 55.0 °F - 54.0 °F 96% 29.86 in 5.0 mi ENE 9.2 mph - 0.19 in Rain Rain
5:53 AM 55.0 °F - 53.1 °F 93% 29.84 in 10.0 mi NE 6.9 mph - 0.05 in Rain Light Rain
6:53 AM 55.0 °F - 54.0 °F 96% 29.85 in 6.0 mi ENE 5.8 mph - 0.02 in Rain Light Rain
7:25 AM 55.4 °F - 53.6 °F 94% 29.86 in 10.0 mi ENE 10.4 mph - 0.00 in   Overcast
7:31 AM 55.4 °F - 53.6 °F 94% 29.86 in 10.0 mi ENE 10.4 mph 18.4 mph 0.00 in   Overcast
7:38 AM 55.4 °F - 53.6 °F 94% 29.87 in 9.0 mi ENE 12.7 mph 20.7 mph N/A   Overcast
7:53 AM 54.0 °F - 53.1 °F 97% 29.86 in 2.0 mi ENE 17.3 mph 21.9 mph 0.00 in Rain Light Rain
8:08 AM 53.6 °F - 51.8 °F 94% 29.86 in 3.0 mi ENE 12.7 mph 20.7 mph 0.01 in Rain Light Rain
8:53 AM 54.0 °F - 52.0 °F 93% 29.86 in 10.0 mi ENE 11.5 mph - 0.01 in   Overcast
9:26 AM 53.6 °F - 53.6 °F 100% 29.85 in 4.0 mi ENE 9.2 mph - 0.01 in Rain Light Rain
9:49 AM 53.6 °F - 51.8 °F 94% 29.84 in 1.8 mi NE 13.8 mph - 0.02 in Rain Light Rain
9:53 AM 54.0 °F - 52.0 °F 93% 29.84 in 2.0 mi NE 11.5 mph - 0.02 in Rain Light Rain
10:23 AM 53.6 °F - 51.8 °F 94% 29.84 in 3.0 mi ENE 15.0 mph 19.6 mph 0.02 in Rain Light Rain
10:30 AM 53.6 °F - 51.8 °F 94% 29.83 in 2.0 mi ENE 13.8 mph 20.7 mph 0.02 in Rain Light Rain
10:53 AM 52.0 °F - 51.1 °F 97% 29.83 in 3.0 mi NE 13.8 mph - 0.03 in Rain Light Rain
11:34 AM 51.8 °F - 48.2 °F 88% 29.81 in 2.5 mi NE 16.1 mph 21.9 mph 0.01 in Rain Light Rain
11:53 AM 50.0 °F - 48.0 °F 93% 29.79 in 2.5 mi NE 15.0 mph - 0.01 in Rain Light Rain
12:02 PM 50.0 °F - 48.2 °F 94% 29.80 in 4.0 mi NE 11.5 mph 20.7 mph 0.00 in Rain Light Rain
12:53 PM 50.0 °F - 48.0 °F 93% 29.75 in 9.0 mi NE 12.7 mph 20.7 mph 0.03 in Rain Light Rain
1:53 PM 50.0 °F - 48.0 °F 93% 29.70 in 10.0 mi NE 12.7 mph - 0.03 in Rain Light Rain
2:53 PM 50.0 °F - 48.0 °F 93% 29.68 in 2.5 mi NE 12.7 mph - 0.06 in Rain Light Rain
3:03 PM 50.0 °F - 48.2 °F 94% 29.68 in 4.0 mi NNE 8.1 mph 20.7 mph 0.00 in Rain Light Rain
3:53 PM 50.0 °F - 48.2 °F 94% 29.64 in 10.0 mi NNE 8.1 mph 19.6 mph N/A   Overcast
4:32 PM 50.0 °F - 48.2 °F 94% 29.62 in 10.0 mi NE 13.8 mph 31.1 mph 0.01 in Rain Light Rain
4:53 PM 50.0 °F - 48.0 °F 93% 29.62 in 10.0 mi NE 12.7 mph - 0.01 in   Overcast
5:53 PM 48.9 °F - 46.9 °F 93% 29.67 in 10.0 mi North 12.7 mph - N/A   Overcast
6:03 PM 48.2 °F - 46.4 °F 93% 29.66 in 10.0 mi North 12.7 mph - N/A   Overcast
6:17 PM 48.2 °F - 46.4 °F 93% 29.65 in 10.0 mi NNE 17.3 mph 25.3 mph N/A   Overcast
6:53 PM 48.0 °F - 46.0 °F 93% 29.67 in 10.0 mi North 16.1 mph 24.2 mph N/A   Overcast
7:53 PM 46.9 °F - 45.0 °F 93% 29.68 in 10.0 mi North 8.1 mph - N/A   Overcast
8:53 PM 46.9 °F - 44.1 °F 90% 29.69 in 10.0 mi NNW 10.4 mph - N/A   Overcast
9:23 PM 46.4 °F 42.9 °F 42.8 °F 87% 29.71 in 10.0 mi NNW 6.9 mph - 0.00 in Rain Light Rain
9:53 PM 46.0 °F 39.9 °F 43.0 °F 89% 29.75 in 7.0 mi NW 13.8 mph - 0.01 in Rain Light Rain
10:03 PM 44.6 °F 37.8 °F 42.8 °F 93% 29.75 in 7.0 mi NW 15.0 mph - 0.01 in Rain Light Rain
10:53 PM 43.0 °F 36.4 °F 39.9 °F 89% 29.76 in 9.0 mi NNW 12.7 mph 19.6 mph 0.01 in Rain Light Rain
11:02 PM 42.8 °F 34.8 °F 39.2 °F 87% 29.77 in 10.0 mi NNW 17.3 mph 26.5 mph 0.00 in   Overcast
11:53 PM 41.0 °F 32.5 °F 37.9 °F 89% 29.79 in 10.0 mi NNW 17.3 mph 28.8 mph 0.00 in   Overcast